Time,TemperatureF,DewpointF,PressureIn,WindDirection,WindDirectionDegrees,WindSpeedMPH,WindSpeedGustMPH,Humidity,HourlyPrecipIn,Conditions,Clouds,dailyrainin,SoftwareType,DateUTC
2013-12-08 00:13:00,-999.0,-99.9,30.13,North,-999,-999.0,-999.0,-999,-99.99,,,0.00,weatherlink.com 1.10,2013-12-08 05:13:00,
2013-12-08 00:28:00,-999.0,-99.9,30.12,North,-999,-999.0,-999.0,-999,-99.99,,,0.00,weatherlink.com 1.10,2013-12-08 05:28:00,
2013-12-08 00:43:00,-999.0,-99.9,30.12,North,-999,-999.0,-999.0,-999,-99.99,,,0.00,weatherlink.com 1.10,2013-12-08 05:43:00,
2013-12-08 00:58:00,-999.0,-99.9,30.11,North,-999,-999.0,-999.0,-999,-99.99,,,0.00,weatherlink.com 1.10,2013-12-08 05:58:00,
2013-12-08 01:13:00,-999.0,-99.9,30.11,North,-999,-999.0,-999.0,-999,-99.99,,,0.00,weatherlink.com 1.10,2013-12-08 06:13:00,
2013-12-08 01:28:00,-999.0,-99.9,30.11,North,-999,-999.0,-999.0,-999,-99.99,,,0.00,weatherlink.com 1.10,2013-12-08 06:28:00,
2013-12-08 01:43:00,-999.0,-99.9,30.11,North,-999,-999.0,-999.0,-999,-99.99,,,0.00,weatherlink.com 1.10,2013-12-08 06:43:00,
2013-12-08 01:58:00,-999.0,-99.9,30.10,North,-999,-999.0,-999.0,-999,-99.99,,,0.00,weatherlink.com 1.10,2013-12-08 06:58:00,
2013-12-08 02:13:00,-999.0,-99.9,30.10,North,-999,-999.0,-999.0,-999,-99.99,,,0.00,weatherlink.com 1.10,2013-12-08 07:13:00,
2013-12-08 02:28:00,-999.0,-99.9,30.09,North,-999,-999.0,-999.0,-999,-99.99,,,0.00,weatherlink.com 1.10,2013-12-08 07:28:00,
2013-12-08 02:43:00,-999.0,-99.9,30.09,North,-999,-999.0,-999.0,-999,-99.99,,,0.00,weatherlink.com 1.10,2013-12-08 07:43:00,
2013-12-08 02:58:00,-999.0,-99.9,30.09,North,-999,-999.0,-999.0,-999,-99.99,,,0.00,weatherlink.com 1.10,2013-12-08 07:58:00,
2013-12-08 03:13:00,-999.0,-99.9,30.09,North,-999,-999.0,-999.0,-999,-99.99,,,0.00,weatherlink.com 1.10,2013-12-08 08:13:00,
2013-12-08 03:28:00,-999.0,-99.9,30.08,North,-999,-999.0,-999.0,-999,-99.99,,,0.00,weatherlink.com 1.10,2013-12-08 08:28:00,
2013-12-08 03:43:00,-999.0,-99.9,30.08,North,-999,-999.0,-999.0,-999,-99.99,,,0.00,weatherlink.com 1.10,2013-12-08 08:43:00,
2013-12-08 03:58:00,-999.0,-99.9,30.08,North,-999,-999.0,-999.0,-999,-99.99,,,0.00,weatherlink.com 1.10,2013-12-08 08:58:00,
2013-12-08 04:13:00,-999.0,-99.9,30.08,North,-999,-999.0,-999.0,-999,-99.99,,,0.00,weatherlink.com 1.10,2013-12-08 09:13:00,
2013-12-08 04:28:00,-999.0,-99.9,30.08,North,-999,-999.0,-999.0,-999,-99.99,,,0.00,weatherlink.com 1.10,2013-12-08 09:28:00,
2013-12-08 04:43:00,-999.0,-99.9,30.08,North,-999,-999.0,-999.0,-999,-99.99,,,0.00,weatherlink.com 1.10,2013-12-08 09:43:00,
2013-12-08 04:58:00,-999.0,-99.9,30.08,North,-999,-999.0,-999.0,-999,-99.99,,,0.00,weatherlink.com 1.10,2013-12-08 09:58:00,
2013-12-08 05:13:00,-999.0,-99.9,30.08,North,-999,-999.0,-999.0,-999,-99.99,,,0.00,weatherlink.com 1.10,2013-12-08 10:13:00,
2013-12-08 05:28:00,-999.0,-99.9,30.09,North,-999,-999.0,-999.0,-999,-99.99,,,0.00,weatherlink.com 1.10,2013-12-08 10:28:00,
2013-12-08 05:43:00,-999.0,-99.9,30.09,North,-999,-999.0,-999.0,-999,-99.99,,,0.00,weatherlink.com 1.10,2013-12-08 10:43:00,
2013-12-08 05:58:00,-999.0,-99.9,30.10,North,-999,-999.0,-999.0,-999,-99.99,,,0.00,weatherlink.com 1.10,2013-12-08 10:58:00,
2013-12-08 06:13:00,-999.0,-99.9,30.10,North,-999,-999.0,-999.0,-999,-99.99,,,0.00,weatherlink.com 1.10,2013-12-08 11:13:00,
2013-12-08 06:28:00,-999.0,-99.9,30.10,North,-999,-999.0,-999.0,-999,-99.99,,,0.00,weatherlink.com 1.10,2013-12-08 11:28:00,
2013-12-08 06:43:00,-999.0,-99.9,30.11,North,-999,-999.0,-999.0,-999,-99.99,,,0.00,weatherlink.com 1.10,2013-12-08 11:43:00,
2013-12-08 06:58:00,-999.0,-99.9,30.11,North,-999,-999.0,-999.0,-999,-99.99,,,0.00,weatherlink.com 1.10,2013-12-08 11:58:00,
2013-12-08 07:13:00,-999.0,-99.9,30.11,North,-999,-999.0,-999.0,-999,-99.99,,,0.00,weatherlink.com 1.10,2013-12-08 12:13:00,
2013-12-08 07:28:00,-999.0,-99.9,30.12,North,-999,-999.0,-999.0,-999,-99.99,,,0.00,weatherlink.com 1.10,2013-12-08 12:28:00,
2013-12-08 07:43:00,-999.0,-99.9,30.13,North,-999,-999.0,-999.0,-999,-99.99,,,0.00,weatherlink.com 1.10,2013-12-08 12:43:00,
2013-12-08 07:58:00,-999.0,-99.9,30.13,North,-999,-999.0,-999.0,-999,-99.99,,,0.00,weatherlink.com 1.10,2013-12-08 12:58:00,
2013-12-08 08:13:00,76.8,69.0,30.14,East,91,1.0,-999.0,77,-99.99,,,0.00,weatherlink.com 1.10,2013-12-08 13:13:00,
2013-12-08 08:28:00,77.2,70.0,30.14,South,169,1.0,-999.0,77,-99.99,,,0.00,weatherlink.com 1.10,2013-12-08 13:28:00,
2013-12-08 08:43:00,77.9,70.0,30.14,SSE,153,4.0,-999.0,76,-99.99,,,0.00,weatherlink.com 1.10,2013-12-08 13:43:00,
2013-12-08 08:58:00,77.9,69.0,30.15,SSE,162,0.0,-999.0,75,-99.99,,,0.00,weatherlink.com 1.10,2013-12-08 13:58:00,
2013-12-08 09:13:00,79.0,70.0,30.15,SE,146,3.0,-999.0,74,-99.99,,,0.00,weatherlink.com 1.10,2013-12-08 14:13:00,
2013-12-08 09:28:00,79.0,70.0,30.15,ENE,75,1.0,-999.0,74,-99.99,,,0.00,weatherlink.com 1.10,2013-12-08 14:28:00,
2013-12-08 09:43:00,79.4,71.0,30.15,East,99,0.0,-999.0,75,-99.99,,,0.00,weatherlink.com 1.10,2013-12-08 14:43:00,
2013-12-08 09:58:00,80.3,71.0,30.15,SSE,168,3.0,-999.0,72,-99.99,,,0.00,weatherlink.com 1.10,2013-12-08 14:58:00,
2013-12-08 10:13:00,80.5,70.0,30.15,South,186,2.0,-999.0,71,-99.99,,,0.00,weatherlink.com 1.10,2013-12-08 15:13:00,
2013-12-08 10:28:00,80.7,70.0,30.15,SSE,155,3.0,-999.0,70,-99.99,,,0.00,weatherlink.com 1.10,2013-12-08 15:28:00,
2013-12-08 10:43:00,81.2,71.0,30.14,ESE,115,2.0,-999.0,70,-99.99,,,0.00,weatherlink.com 1.10,2013-12-08 15:43:00,
2013-12-08 10:58:00,81.4,70.0,30.14,ESE,110,2.0,-999.0,68,-99.99,,,0.00,weatherlink.com 1.10,2013-12-08 15:58:00,
2013-12-08 11:13:00,81.8,71.0,30.14,SE,140,3.0,-999.0,69,-99.99,,,0.00,weatherlink.com 1.10,2013-12-08 16:13:00,
2013-12-08 11:28:00,82.2,71.0,30.13,ESE,122,1.0,-999.0,68,-99.99,,,0.00,weatherlink.com 1.10,2013-12-08 16:28:00,
2013-12-08 11:43:00,81.6,71.0,30.13,ENE,70,1.0,-999.0,70,-99.99,,,0.00,weatherlink.com 1.10,2013-12-08 16:43:00,
2013-12-08 11:58:00,81.8,71.0,30.12,ESE,113,3.0,-999.0,70,-99.99,,,0.00,weatherlink.com 1.10,2013-12-08 16:58:00,
2013-12-08 12:13:00,82.8,72.0,30.11,East,80,0.0,-999.0,69,-99.99,,,0.00,weatherlink.com 1.10,2013-12-08 17:13:00,
2013-12-08 12:28:00,82.0,71.0,30.11,SE,126,0.0,-999.0,69,-99.99,,,0.00,weatherlink.com 1.10,2013-12-08 17:28:00,
2013-12-08 12:43:00,82.6,71.0,30.10,SSE,162,2.0,-999.0,67,-99.99,,,0.00,weatherlink.com 1.10,2013-12-08 17:43:00,
2013-12-08 12:58:00,82.8,70.0,30.09,SSE,157,7.0,-999.0,65,-99.99,,,0.00,weatherlink.com 1.10,2013-12-08 17:58:00,
2013-12-08 13:13:00,82.8,70.0,30.09,South,176,2.0,-999.0,65,-99.99,,,0.00,weatherlink.com 1.10,2013-12-08 18:13:00,
2013-12-08 13:28:00,82.8,70.0,30.08,ESE,102,1.0,-999.0,65,-99.99,,,0.00,weatherlink.com 1.10,2013-12-08 18:28:00,
2013-12-08 13:43:00,82.8,70.0,30.08,SSE,157,1.0,-999.0,66,-99.99,,,0.00,weatherlink.com 1.10,2013-12-08 18:43:00,
2013-12-08 13:58:00,82.8,70.0,30.08,East,88,3.0,-999.0,65,-99.99,,,0.00,weatherlink.com 1.10,2013-12-08 18:58:00,
2013-12-08 14:13:00,83.4,70.0,30.08,SE,146,1.0,-999.0,64,-99.99,,,0.00,weatherlink.com 1.10,2013-12-08 19:13:00,
2013-12-08 14:28:00,81.8,70.0,30.07,SSE,155,3.0,-999.0,67,-99.99,,,0.00,weatherlink.com 1.10,2013-12-08 19:28:00,
2013-12-08 14:58:00,81.8,69.0,30.07,SE,140,0.0,-999.0,65,-99.99,,,0.00,weatherlink.com 1.10,2013-12-08 19:58:00,
2013-12-08 15:14:00,82.0,68.0,30.08,SE,141,1.0,-999.0,63,-99.99,,,0.00,weatherlink.com 1.10,2013-12-08 20:14:00,
2013-12-08 15:28:00,81.8,68.0,30.07,SSE,157,4.0,-999.0,64,-99.99,,,0.00,weatherlink.com 1.10,2013-12-08 20:28:00,
2013-12-08 15:43:00,82.2,68.0,30.07,SE,141,2.0,-999.0,63,-99.99,,,0.00,weatherlink.com 1.10,2013-12-08 20:43:00,
2013-12-08 15:58:00,81.2,68.0,30.07,SE,138,4.0,-999.0,65,-99.99,,,0.00,weatherlink.com 1.10,2013-12-08 20:58:00,
2013-12-08 16:14:00,81.2,69.0,30.07,ENE,67,1.0,-999.0,66,-99.99,,,0.00,weatherlink.com 1.10,2013-12-08 21:14:00,
2013-12-08 16:28:00,80.3,68.0,30.07,NE,44,1.0,-999.0,67,-99.99,,,0.00,weatherlink.com 1.10,2013-12-08 21:28:00,
2013-12-08 16:43:00,80.1,69.0,30.07,SSE,148,1.0,-999.0,68,-99.99,,,0.00,weatherlink.com 1.10,2013-12-08 21:43:00,
2013-12-08 16:59:00,79.6,69.0,30.07,SE,143,1.0,-999.0,69,-99.99,,,0.00,weatherlink.com 1.10,2013-12-08 21:59:00,
2013-12-08 17:14:00,79.6,69.0,30.07,East,94,2.0,-999.0,70,-99.99,,,0.00,weatherlink.com 1.10,2013-12-08 22:14:00,
2013-12-08 17:28:00,79.6,69.0,30.07,SE,142,2.0,-999.0,70,-99.99,,,0.00,weatherlink.com 1.10,2013-12-08 22:28:00,
2013-12-08 17:43:00,-999.0,-99.9,30.07,North,-999,-999.0,-999.0,-999,-99.99,,,0.00,weatherlink.com 1.10,2013-12-08 22:43:00,
2013-12-08 17:59:00,-999.0,-99.9,30.07,North,-999,-999.0,-999.0,-999,-99.99,,,0.00,weatherlink.com 1.10,2013-12-08 22:59:00,
2013-12-08 18:14:00,-999.0,-99.9,30.07,North,-999,-999.0,-999.0,-999,-99.99,,,0.00,weatherlink.com 1.10,2013-12-08 23:14:00,
2013-12-08 18:29:00,-999.0,-99.9,30.08,North,-999,-999.0,-999.0,-999,-99.99,,,0.00,weatherlink.com 1.10,2013-12-08 23:29:00,
2013-12-08 18:44:00,-999.0,-99.9,30.08,North,-999,-999.0,-999.0,-999,-99.99,,,0.00,weatherlink.com 1.10,2013-12-08 23:44:00,
2013-12-08 18:59:00,-999.0,-99.9,30.08,North,-999,-999.0,-999.0,-999,-99.99,,,0.00,weatherlink.com 1.10,2013-12-08 23:59:00,
2013-12-08 19:14:00,-999.0,-99.9,30.09,North,-999,-999.0,-999.0,-999,-99.99,,,0.00,weatherlink.com 1.10,2013-12-09 00:14:00,
2013-12-08 19:29:00,-999.0,-99.9,30.09,North,-999,-999.0,-999.0,-999,-99.99,,,0.00,weatherlink.com 1.10,2013-12-09 00:29:00,
2013-12-08 19:44:00,-999.0,-99.9,30.10,North,-999,-999.0,-999.0,-999,-99.99,,,0.00,weatherlink.com 1.10,2013-12-09 00:44:00,
2013-12-08 19:59:00,-999.0,-99.9,30.10,North,-999,-999.0,-999.0,-999,-99.99,,,0.00,weatherlink.com 1.10,2013-12-09 00:59:00,
2013-12-08 20:29:00,-999.0,-99.9,30.10,North,-999,-999.0,-999.0,-999,-99.99,,,0.00,weatherlink.com 1.10,2013-12-09 01:29:00,
2013-12-08 20:44:00,-999.0,-99.9,30.10,North,-999,-999.0,-999.0,-999,-99.99,,,0.00,weatherlink.com 1.10,2013-12-09 01:44:00,
2013-12-08 21:29:00,-999.0,-99.9,30.11,North,-999,-999.0,-999.0,-999,-99.99,,,0.00,weatherlink.com 1.10,2013-12-09 02:29:00,
2013-12-08 21:44:00,-999.0,-99.9,30.10,North,-999,-999.0,-999.0,-999,-99.99,,,0.00,weatherlink.com 1.10,2013-12-09 02:44:00,
2013-12-08 21:59:00,-999.0,-99.9,30.11,North,-999,-999.0,-999.0,-999,-99.99,,,0.00,weatherlink.com 1.10,2013-12-09 02:59:00,
2013-12-08 22:14:00,-999.0,-99.9,30.11,North,-999,-999.0,-999.0,-999,-99.99,,,0.00,weatherlink.com 1.10,2013-12-09 03:14:00,
2013-12-08 22:44:00,-999.0,-99.9,30.11,North,-999,-999.0,-999.0,-999,-99.99,,,0.00,weatherlink.com 1.10,2013-12-09 03:44:00,
2013-12-08 22:59:00,-999.0,-99.9,30.11,North,-999,-999.0,-999.0,-999,-99.99,,,0.00,weatherlink.com 1.10,2013-12-09 03:59:00,
2013-12-08 23:14:00,-999.0,-99.9,30.11,North,-999,-999.0,-999.0,-999,-99.99,,,0.00,weatherlink.com 1.10,2013-12-09 04:14:00,
2013-12-08 23:29:00,-999.0,-99.9,30.10,North,-999,-999.0,-999.0,-999,-99.99,,,0.00,weatherlink.com 1.10,2013-12-09 04:29:00,
2013-12-08 23:44:00,-999.0,-99.9,30.10,North,-999,-999.0,-999.0,-999,-99.99,,,0.00,weatherlink.com 1.10,2013-12-09 04:44:00,
2013-12-08 23:59:00,-999.0,-99.9,30.10,North,-999,-999.0,-999.0,-999,-99.99,,,0.00,weatherlink.com 1.10,2013-12-09 04:59:00,